INTELSAT 15 (IS-15)

Last updated on Mon Nov 03 2025 00:02:56 GMT+0000 (Coordinated Universal Time)

1 36106U 09067A 25306.51341123 -.00000173 00000+0 00000+0 0 9994 2 36106 0.0168 274.2609 0002336 305.1282 92.6604 1.00271419 38955
UTC large
Height (km)
Speed (km/s)
/
Latitude / Longitude
Inclination (degrees)
Orbital Period (minutes)
Azimuth
Elevation
Range (km)
Doppler Factor

Next 0 passes for location: London (51.5072 / 0.1276)

Sorry there are no passes over London.